Muskegon, MI

11:53 AM EST on January 20, 2017 (GMT -0500)
Muskegon County

Weather History for KMKG - November, 2012

Change the Weather History Date:

Sunday, November 4, 2012

  Actual Average Record
Temperature  
Mean Temperature 40 °F 44 °F  
Max Temperature 46 °F 52 °F 70 °F (1938)
Min Temperature 33 °F 37 °F 18 °F (1951)
Degree Days  
Heating Degree Days 25 21  
Month to date heating degree days 97 81  
Since 1 July heating degree days 679 704  
Cooling Degree Days 0 0  
Month to date cooling degree days 0 0  
Year to date cooling degree days 925 566  
Moisture  
Dew Point 26 °F    
Average Humidity 63    
Maximum Humidity 76    
Minimum Humidity 49    
Precipitation  
Precipitation 0.00 in 0.11 in 1.24 in (2003)
Month to date precipitation T 0.47  
Year to date precipitation 27.98 28.05  
Snow  
Snow 0.00 in 0.00 in 3.90 in (1962)
Month to date snowfall 0.0 0.2  
Since 1 July snowfall T 0.4  
Since 1 September snowfall T 0.4  
Snow Depth 0.00 in    
Sea Level Pressure  
Sea Level Pressure 30.23 in    
Wind  
Wind Speed 6 mph (North)    
Max Wind Speed 14 mph    
Max Gust Speed 17 mph    
Visibility 10 miles    
Events      
T = Trace of Precipitation, MM = Missing Value Source: NWS Daily Summary

Daily Weather History Graph

Daily Weather History Graph

Search for Another Location

Airport or City:

Trip Planner

Search our weather history database for the weather conditions in past years. The results will help you decide how hot, cold, wet, or windy it might be!

Date:

Astronomy

Nov. 04, 2012 Rise Set
Actual Time 7:24 AM EST 5:32 PM EST
Civil Twilight 6:54 AM EST 6:02 PM EST
Nautical Twilight 6:20 AM EST 6:35 PM EST
Astronomical Twilight 5:47 AM EST 7:09 PM EST
Moon 10:08 PM EST (11/4) 12:09 PM EST (11/4)
Length of Visible Light 11h 07m
Length of Day
10h 07m
Waning Gibbous, 72% of the Moon is Illuminated
Nov 4
Waning Gibbous
Nov 6
Last Quarter
Nov 13
New
Nov 20
First Quarter
Nov 28
Full

Hourly Weather History & Observations

Time (EST) Temp. Windchill Dew Point Humidity Pressure Visibility Wind Dir Wind Speed Gust Speed Precip Events Conditions
12:55 AM 37.9 °F 34.4 °F 30.0 °F 73% 30.22 in 10.0 mi North 4.6 mph - N/A   Overcast
1:55 AM 37.9 °F 33.5 °F 26.1 °F 62% 30.23 in 10.0 mi NNE 5.8 mph - N/A   Overcast
1:55 AM 37.0 °F 33.3 °F 25.0 °F 62% 30.24 in 10.0 mi North 4.6 mph - N/A   Overcast
2:55 AM 37.0 °F 34.5 °F 26.1 °F 65% 30.23 in 10.0 mi NNE 3.5 mph - N/A   Overcast
3:55 AM 37.0 °F 34.5 °F 25.0 °F 62% 30.22 in 10.0 mi NNE 3.5 mph - N/A   Overcast
4:55 AM 37.0 °F 33.3 °F 25.0 °F 62% 30.24 in 10.0 mi North 4.6 mph - N/A   Overcast
5:55 AM 37.0 °F 34.5 °F 25.0 °F 62% 30.25 in 10.0 mi North 3.5 mph - N/A   Overcast
6:55 AM 36.0 °F 31.1 °F 25.0 °F 64% 30.24 in 10.0 mi ENE 5.8 mph - N/A   Overcast
7:55 AM 35.1 °F 32.2 °F 25.0 °F 67% 30.25 in 10.0 mi NNE 3.5 mph - N/A   Scattered Clouds
8:55 AM 37.9 °F 33.5 °F 26.1 °F 62% 30.25 in 10.0 mi NNE 5.8 mph - N/A   Mostly Cloudy
9:55 AM 37.9 °F 30.9 °F 25.0 °F 60% 30.25 in 10.0 mi NNE 10.4 mph - N/A   Overcast
10:55 AM 39.9 °F 33.9 °F 25.0 °F 55% 30.25 in 10.0 mi NNE 9.2 mph - 0.00 in   Partly Cloudy
11:35 AM 41.0 °F 37.1 °F 24.8 °F 53% 30.22 in 10.0 mi NNE 5.8 mph - N/A   Mostly Cloudy
11:55 AM 39.9 °F 35.1 °F 25.0 °F 55% 30.24 in 10.0 mi NE 6.9 mph - N/A   Overcast
12:29 PM 42.8 °F 39.3 °F 24.8 °F 49% 30.21 in 10.0 mi NE 5.8 mph - N/A   Overcast
12:55 PM 42.1 °F 39.2 °F 25.0 °F 51% 30.23 in 10.0 mi NNW 4.6 mph - N/A   Mostly Cloudy
1:55 PM 45.0 °F 40.1 °F 26.1 °F 48% 30.21 in 10.0 mi NNW 9.2 mph - N/A   Scattered Clouds
2:55 PM 44.1 °F 40.8 °F 30.0 °F 58% 30.20 in 10.0 mi WNW 5.8 mph - N/A   Mostly Cloudy
3:55 PM 44.1 °F 40.8 °F 28.9 °F 55% 30.19 in 10.0 mi West 5.8 mph - N/A   Partly Cloudy
4:55 PM 42.1 °F 36.1 °F 28.0 °F 58% 30.19 in 10.0 mi NW 10.4 mph - N/A   Partly Cloudy
5:55 PM 39.0 °F 31.4 °F 27.0 °F 62% 30.20 in 10.0 mi North 12.7 mph - N/A   Clear
6:55 PM 37.0 °F 32.4 °F 27.0 °F 67% 30.22 in 10.0 mi North 5.8 mph - N/A   Clear
7:55 PM 36.0 °F 32.1 °F 27.0 °F 70% 30.22 in 10.0 mi North 4.6 mph - N/A   Clear
8:55 PM 36.0 °F 31.1 °F 27.0 °F 70% 30.22 in 10.0 mi North 5.8 mph - N/A   Clear
9:55 PM 34.0 °F 28.8 °F 27.0 °F 75% 30.22 in 10.0 mi North 5.8 mph - N/A   Clear
10:55 PM 34.0 °F 29.8 °F 27.0 °F 75% 30.22 in 10.0 mi North 4.6 mph - N/A   Clear